DW8871 Weather Reports


Display with metric or nautical units.
time (UTC)temp
F
wind
direction
speed
MPH
gust
MPH
rain 1hr
in
rain 24hr
in
rain mn
in
humidity
%
barometer
mb
20260505024532 65 0 0.0 0.0 0.00 0.00 0.00 78 1002.8
20260505023032 66 0 0.0 0.0 0.00 0.00 0.00 76 1002.7
20260505021532 66 0 0.0 0.0 0.00 0.00 0.00 76 1002.6
20260505020038 67 0 0.0 0.0 0.00 0.00 0.00 69 1002.3
20260505014548 69 0 0.0 0.0 0.00 0.00 0.00 64 1002.1
20260505013037 71 0 0.0 0.0 0.00 0.00 0.00 62 1001.9
20260505011535 73 0 0.0 0.0 0.00 0.00 0.00 60 1001.7
20260505010030 75 0 0.0 2.0 0.00 0.00 0.00 60 1001.6
20260505004544 76 0 0.0 3.0 0.00 0.00 0.00 52 1001.5
20260505003049 77 246 0.0 4.0 0.00 0.00 0.00 50 1001.4
20260505001532 78 260 0.0 7.0 0.00 0.00 0.00 48 1001.5
20260505000035 79 263 2.0 7.0 0.00 0.00 0.00 46 1001.4
20260504234530 79 257 1.0 6.0 0.00 0.00 0.00 44 1001.5
20260504233029 79 229 2.0 8.0 0.00 0.00 0.00 41 1001.5
20260504231532 80 205 2.0 9.0 0.00 0.00 0.00 42 1001.5
20260504230032 80 238 3.0 9.0 0.00 0.00 0.00 42 1001.5
20260504224529 80 239 5.0 10.0 0.00 0.00 0.00 42 1001.5
20260504223037 81 285 5.0 11.0 0.00 0.00 0.00 40 1001.4
20260504221530 81 225 4.0 11.0 0.00 0.00 0.00 41 1001.5
20260504220032 81 223 6.0 11.0 0.00 0.00 0.00 42 1001.4
20260504214533 81 230 3.0 11.0 0.00 0.00 0.00 39 1001.6
20260504213032 81 231 2.0 8.0 0.00 0.00 0.00 38 1001.7
20260504211539 82 286 5.0 10.0 0.00 0.00 0.00 37 1001.7
20260504210036 82 309 2.0 10.0 0.00 0.00 0.00 39 1001.7
20260504204532 82 267 4.0 10.0 0.00 0.00 0.00 35 1001.9
20260504203030 83 238 2.0 11.0 0.00 0.00 0.00 39 1002.1
20260504201530 82 321 4.0 9.0 0.00 0.00 0.00 40 1002.2
20260504200030 81 254 6.0 12.0 0.00 0.00 0.00 42 1002.3
20260504194529 81 231 6.0 15.0 0.00 0.00 0.00 44 1002.3
20260504193032 80 261 4.0 13.0 0.00 0.00 0.00 44 1002.3
20260504191529 80 223 5.0 12.0 0.00 0.00 0.00 47 1002.3
20260504190030 80 259 5.0 13.0 0.00 0.00 0.00 45 1002.3
20260504184544 79 259 4.0 10.0 0.00 0.00 0.00 47 1002.4
20260504183029 78 238 5.0 13.0 0.00 0.00 0.00 46 1002.5
20260504181534 77 243 6.0 13.0 0.00 0.00 0.00 47 1002.5
20260504180033 77 225 4.0 11.0 0.00 0.00 0.00 47 1002.8
20260504174530 76 292 5.0 14.0 0.00 0.00 0.00 49 1002.9
20260504173030 75 238 8.0 15.0 0.00 0.00 0.00 50 1003.0
20260504171530 74 259 6.0 16.0 0.00 0.00 0.00 52 1003.2
20260504081529 55 0 0.0 0.0 0.00 0.00 0.00 80 1005.1
20260504044528 65 80 0.0 3.0 0.00 0.00 0.00 61 1007.4
20260504043031 65 60 2.0 8.0 0.00 0.00 0.00 63 1008.1
20260504041535 62 0 0.0 1.0 0.00 0.00 0.00 71 1007.9
20260504040030 62 0 0.0 0.0 0.00 0.00 0.00 73 1007.6
20260504034530 61 0 0.0 3.0 0.00 0.00 0.00 72 1007.7
20260504033031 60 0 0.0 0.0 0.00 0.00 0.00 76 1007.7
20260504031535 60 0 0.0 0.0 0.00 0.00 0.00 77 1007.8
20260504030029 61 0 0.0 0.0 0.00 0.00 0.00 77 1007.6